Theta_e
352 353 354 353 352 354 357 356 355 360 361 356 354 353 349 352 349 343 340 342 339 339 344 347 361 368 363 368 367 368 370 359 356 358 366 365 375 355 350 351 349 349 348 349 349 351 350 347 348 347 345 344 343 341 340 340 339 338 337 338 338 339 339 337 336 336 336 335 335 335 335 336 337 338
357 355 354 354 352 355 355 355 354 362 362 357 356 353 354 353 352 350 346 347 347 346 344 345 359 370 363 361 364 366 365 357 362 359 362 365 373 347 351 352 350 349 349 347 347 349 348 347 346 343 341 341 340 338 338 338 337 336 336 336 336 336 336 335 335 335 334 334 334 334 334 335 336 336
357 357 354 356 355 356 354 356 355 358 360 359 355 355 355 355 356 355 354 346 350 347 345 345 351 350 358 356 355 358 361 364 364 363 365 368 361 349 358 352 350 349 345 344 343 344 343 342 341 340 341 340 338 338 337 336 336 334 334 333 333 333 333 332 333 333 332 332 333 332 333 334 334 334
356 357 356 358 357 356 358 357 356 356 361 360 355 355 356 359 358 360 357 352 351 357 349 351 352 352 356 355 358 360 360 371 362 367 366 385 357 368 372 352 349 347 344 342 341 339 338 337 338 340 340 338 338 338 335 334 333 332 331 330 330 330 330 330 331 331 330 331 331 331 332 333 333 333
359 359 358 359 359 359 357 357 355 354 356 359 357 357 355 353 359 359 357 353 353 358 358 355 352 356 359 354 361 359 360 361 366 361 366 366 364 369 374 366 348 346 342 340 339 338 337 337 338 340 338 338 337 335 334 332 331 330 328 327 327 327 328 328 329 330 329 329 330 331 331 332 332 332
361 361 361 359 359 360 357 357 355 354 350 353 352 353 352 352 352 359 357 355 355 354 359 357 361 355 360 358 364 363 360 361 364 361 362 361 361 361 362 370 361 344 342 338 337 337 337 337 338 339 339 339 336 334 332 331 328 328 326 325 325 326 326 326 327 328 327 328 329 330 329 330 331 330
364 361 361 360 360 357 357 357 356 355 354 352 350 350 351 351 351 356 361 360 356 354 356 361 358 358 360 359 359 363 362 368 365 367 366 359 355 359 358 360 365 343 341 338 337 337 336 337 337 336 337 337 335 332 329 327 326 325 324 324 325 325 324 324 326 327 326 327 327 327 328 329 329 329
360 360 361 359 358 357 357 358 357 355 354 354 355 355 356 357 355 358 358 364 362 359 355 361 359 360 362 364 361 362 364 361 362 362 363 361 361 361 359 357 363 347 339 338 338 337 337 336 335 334 336 335 330 329 326 325 326 326 324 323 323 323 323 323 323 325 324 324 324 324 325 326 327 326
360 359 359 359 359 359 356 358 358 358 358 356 354 354 355 356 356 357 359 361 363 363 360 361 365 365 366 366 366 365 360 360 361 362 364 362 364 365 363 360 367 346 336 339 337 336 336 336 335 334 333 332 329 328 327 327 326 324 323 322 322 322 323 323 322 324 323 322 322 321 321 323 324 325
360 358 360 359 359 358 357 357 359 361 359 358 355 356 356 356 358 361 361 363 364 363 363 364 360 365 360 364 367 367 363 358 356 356 358 360 365 370 367 364 358 359 351 351 344 336 335 335 332 333 334 332 330 330 328 327 325 323 321 318 318 320 321 320 322 322 320 321 321 320 319 321 323 326
358 358 358 360 359 359 359 358 359 360 360 358 361 361 360 360 360 359 361 363 363 363 362 363 363 362 362 362 361 367 369 367 366 363 359 359 363 365 365 366 366 363 358 355 347 346 346 342 338 327 328 330 331 331 330 327 323 322 319 318 319 320 319 319 321 321 319 320 319 318 317 317 321 326
354 355 356 356 358 358 360 359 360 361 360 363 362 362 362 362 361 360 359 360 359 360 360 360 358 358 363 364 364 361 363 361 364 366 363 359 360 362 367 364 363 365 366 366 359 346 344 342 337 327 327 331 332 332 331 329 329 325 322 320 323 323 320 320 320 320 318 317 316 316 316 316 319 323
353 353 353 354 355 362 367 364 364 363 363 360 361 364 365 366 363 363 362 360 362 361 360 359 360 356 357 359 361 359 358 357 358 362 360 358 357 358 358 366 366 364 362 363 361 359 359 357 349 347 346 344 337 336 334 335 331 327 322 322 323 323 322 320 320 320 318 317 317 316 316 317 320 321
349 350 350 351 364 364 367 364 362 358 362 364 364 368 366 364 365 364 363 363 361 360 359 356 356 353 352 353 359 357 357 359 361 356 360 357 358 360 357 363 363 366 360 356 364 363 362 357 358 359 356 353 345 345 341 343 336 329 325 323 323 322 322 321 320 319 318 317 317 317 315 316 319 318
348 349 350 350 360 370 369 368 356 354 352 356 354 352 356 362 374 365 362 361 362 358 357 356 355 352 354 353 354 352 348 348 348 347 356 355 356 356 354 352 361 372 367 368 367 367 369 368 363 365 363 359 350 352 347 330 330 326 325 324 323 322 322 322 322 321 319 317 317 317 316 317 318 317
351 348 347 347 347 349 355 358 369 360 352 348 349 348 348 349 349 351 366 369 362 361 357 356 356 355 355 356 359 354 352 355 353 357 358 361 359 358 357 356 355 368 369 368 366 364 370 366 360 364 363 363 362 345 331 329 328 327 325 325 323 322 322 322 322 321 320 320 319 319 318 317 316 317
352 351 349 345 344 344 360 363 359 371 368 349 343 346 347 347 345 339 338 341 361 371 367 361 360 359 360 359 360 358 359 362 359 362 358 361 360 361 357 357 356 367 371 370 365 361 364 363 359 356 365 362 345 333 329 329 330 326 325 324 323 322 323 321 321 320 319 319 318 317 316 314 314 314
352 352 350 349 348 347 353 364 359 364 369 370 365 362 362 362 359 347 339 337 337 346 358 363 360 364 367 364 367 370 369 366 364 362 357 360 358 359 360 364 365 369 370 365 362 360 361 362 357 353 357 356 347 346 331 325 327 327 325 324 322 322 320 320 320 319 319 318 318 316 314 313 312 313
351 358 352 353 350 355 357 352 363 362 365 371 371 368 363 363 363 363 360 359 357 357 357 358 359 363 366 368 369 371 373 372 372 370 368 367 367 366 369 368 367 364 368 370 364 357 362 365 357 356 357 356 357 343 323 323 326 325 324 323 323 321 319 320 320 319 318 318 317 316 314 312 311 310
357 356 355 357 357 358 363 358 347 357 368 367 370 371 370 365 362 360 359 348 350 358 357 358 356 355 356 349 369 378 376 375 378 374 372 370 369 366 363 360 358 354 360 367 368 362 362 366 355 355 357 357 351 343 336 324 324 324 323 324 322 320 319 318 319 319 318 318 318 317 314 310 309 310
350 351 357 365 356 357 365 353 335 336 355 366 365 367 369 368 365 362 362 345 338 339 337 336 338 337 336 334 330 325 329 363 365 369 364 360 359 357 353 353 353 355 360 358 366 365 357 362 362 357 358 358 357 348 342 332 324 321 322 322 321 320 319 318 317 318 318 318 317 317 316 311 310 313
352 356 356 364 359 357 359 341 331 331 350 366 363 362 362 362 361 362 361 357 357 334 333 334 334 335 336 336 335 334 332 332 347 364 357 354 350 346 347 346 349 352 356 357 359 366 359 361 361 358 359 360 358 357 344 337 328 322 318 317 319 319 319 318 317 319 318 317 317 317 314 312 315 333
358 360 360 360 359 359 356 336 329 329 347 364 362 361 359 357 357 358 359 359 357 363 360 360 357 356 347 356 362 364 343 339 350 361 360 357 352 349 347 348 350 347 348 354 370 361 357 357 355 356 352 350 354 355 344 339 333 332 333 332 330 319 319 319 317 315 315 317 317 317 314 313 318 343
361 360 360 361 336 333 334 332 323 325 329 360 364 362 358 355 353 355 354 360 360 367 367 367 366 365 366 364 364 365 365 363 362 360 360 359 357 353 351 351 348 347 349 357 359 363 355 355 350 357 351 347 345 350 348 346 342 340 342 341 339 326 322 321 318 313 313 315 315 315 314 314 315 340
359 360 360 359 342 327 326 325 320 319 320 337 364 364 362 361 359 357 355 360 363 370 370 369 363 366 368 368 367 366 366 363 363 362 359 359 357 354 351 348 347 348 351 359 358 366 357 356 354 355 357 354 350 350 356 355 349 346 347 346 345 342 335 334 333 331 313 311 310 310 314 317 315 324
361 361 361 363 348 326 325 323 320 317 319 322 362 367 338 337 338 369 364 360 360 361 360 357 357 358 358 359 362 362 362 362 364 363 363 360 357 356 355 352 353 350 352 388 347 374 365 359 356 354 356 353 352 351 352 353 351 349 346 344 344 345 338 339 338 341 335 333 333 327 328 318 321 316
363 363 364 363 352 325 320 319 319 318 317 322 345 334 330 328 329 350 363 363 362 362 360 358 359 358 359 358 355 355 355 357 361 357 357 363 362 360 359 360 357 358 361 369 372 370 370 364 366 358 355 356 353 352 351 347 348 347 342 340 343 341 337 335 333 335 339 341 340 314 313 311 311 315
361 364 364 360 337 320 315 316 318 319 320 338 327 324 327 328 333 357 361 358 360 360 358 358 357 357 357 356 355 355 358 357 365 361 357 358 357 364 362 366 362 366 368 363 369 372 373 367 366 368 364 359 353 350 348 351 350 343 341 341 343 340 337 337 333 334 337 341 341 336 337 335 333 334
361 346 334 328 328 320 314 315 316 319 319 319 324 322 324 333 353 357 358 356 357 356 356 356 358 358 358 359 360 362 367 369 365 369 363 363 366 368 371 370 369 370 364 362 364 367 371 368 365 366 367 362 357 356 352 350 349 344 341 342 339 339 336 335 335 333 336 336 336 337 338 340 338 339
331 327 326 325 326 322 321 333 340 344 343 323 321 324 328 347 352 355 355 356 354 354 354 355 356 358 359 360 362 368 369 364 363 364 365 364 366 364 361 364 368 365 364 366 366 367 367 369 369 368 364 364 359 356 356 351 351 348 348 342 340 340 336 335 334 333 334 335 334 336 337 339 339 338
343 348 349 347 338 338 331 333 339 340 342 340 335 338 342 347 352 353 355 355 355 355 355 355 357 360 361 363 365 366 367 367 368 367 366 363 362 364 365 366 365 363 366 367 366 368 369 369 370 368 364 363 361 359 358 355 350 351 348 345 339 336 336 337 334 333 335 336 335 334 338 337 334 339
348 351 338 341 353 358 356 350 354 356 359 356 350 350 349 350 352 352 351 353 358 358 359 359 359 359 364 361 359 359 360 360 363 368 365 363 362 361 365 363 361 362 365 368 368 368 370 371 371 371 368 366 361 360 359 356 353 351 347 345 340 338 340 334 333 334 335 337 333 334 338 337 336 336
348 347 346 345 347 351 353 353 355 355 356 356 357 357 357 356 355 354 353 353 353 355 356 357 359 359 359 359 359 358 359 364 363 370 370 371 367 369 365 359 358 358 358 360 364 368 369 371 372 372 370 368 367 364 358 352 352 352 347 347 344 337 337 336 335 334 338 338 336 332 333 336 335 335
343 344 344 345 345 347 352 353 353 354 355 355 354 354 344 354 356 354 353 354 353 355 354 356 356 358 359 359 359 359 358 363 363 364 355 369 370 366 362 360 360 360 359 358 358 359 364 368 369 369 370 369 367 367 362 355 351 351 349 349 345 337 338 339 339 337 336 336 338 331 331 331 333 333
341 340 341 345 348 350 354 355 355 355 355 354 355 353 354 356 354 352 354 355 353 352 353 354 355 356 357 358 359 358 359 359 360 362 363 365 367 363 362 360 360 360 358 357 358 362 360 364 364 361 360 358 358 361 356 362 355 352 351 349 346 339 339 338 337 336 335 338 335 334 330 329 329 332
343 343 342 343 346 348 349 350 354 356 357 356 357 355 354 354 355 356 356 355 358 355 354 354 353 355 356 357 358 358 357 358 359 359 359 360 360 361 361 361 359 359 359 358 358 360 359 362 360 355 351 350 349 347 349 348 350 355 349 347 345 342 341 340 340 338 332 332 337 335 330 329 329 330
344 346 346 347 348 350 350 353 356 357 359 358 357 357 356 354 355 358 361 361 359 356 357 357 355 355 355 355 354 353 355 356 356 357 357 357 359 359 359 358 357 360 358 358 360 359 360 358 357 355 350 347 344 341 344 356 340 341 356 349 345 345 342 342 340 337 334 333 334 332 332 333 331 331
342 346 348 348 350 352 353 355 356 358 360 360 358 358 358 359 359 362 367 367 360 356 357 357 355 356 356 355 356 356 356 356 356 356 354 356 355 356 356 357 357 358 358 359 360 359 359 357 356 355 351 346 343 342 343 349 352 341 336 350 344 342 345 343 336 333 335 333 331 333 333 331 336 334
345 347 350 354 356 357 355 357 358 359 360 363 359 358 359 359 359 361 361 359 362 360 359 358 358 357 359 359 356 356 356 355 355 355 356 356 355 356 356 356 356 357 358 357 358 358 359 356 356 356 353 349 347 347 349 348 348 352 342 327 345 345 339 339 335 335 335 332 333 338 336 344 328 322
342 347 352 356 357 359 359 361 360 361 361 361 361 361 360 359 359 360 359 358 361 365 362 360 358 353 360 358 358 359 357 357 355 354 355 355 355 355 356 356 356 356 356 355 354 356 357 356 357 356 355 355 356 358 358 357 356 353 350 335 323 339 342 339 336 335 334 335 334 331 331 337 332 331
350 351 353 355 357 359 359 360 361 361 361 363 364 354 363 364 363 361 360 360 359 363 360 361 363 363 361 360 360 357 356 354 355 356 357 356 352 352 350 344 357 356 354 353 354 354 355 359 360 343 360 363 364 357 352 347 344 344 341 342 321 318 322 329 342 341 337 338 335 330 330 330 329 330
355 355 357 358 358 360 360 360 361 362 363 362 362 363 365 367 366 350 361 358 367 368 363 362 363 361 362 362 362 356 358 357 356 355 355 355 355 353 347 350 354 354 352 352 353 354 360 366 366 362 361 360 356 349 346 345 345 345 346 342 340 324 317 315 319 327 343 337 334 333 330 330 331 329
354 357 358 358 359 360 361 360 361 361 361 362 363 364 363 364 363 362 362 363 365 362 363 363 363 362 362 362 362 362 359 358 358 357 356 357 356 355 353 355 354 354 354 354 356 358 360 363 367 362 359 356 353 350 346 347 347 347 345 342 339 337 335 322 314 313 318 316 318 331 342 333 329 324
355 356 358 360 361 362 362 362 362 362 362 362 362 365 364 363 363 364 363 362 363 363 364 363 363 363 363 363 361 361 361 361 360 359 357 355 355 355 354 354 352 356 355 354 355 355 357 357 359 358 354 352 352 350 347 347 345 343 344 343 340 337 333 334 332 322 319 320 315 310 310 313 319 321
353 356 357 358 360 361 363 363 362 362 363 362 362 362 361 362 361 364 363 363 363 363 362 363 363 364 364 363 363 360 361 347 353 359 359 356 356 353 352 354 352 356 356 357 355 354 356 356 359 358 354 352 352 349 347 345 346 343 343 342 338 336 335 334 333 331 332 335 326 314 312 314 315 313
Wind_Speed
7 6 6 5 4 3 1 3 3 1 2 2 1 2 2 2 3 3 1 4 2 3 6 3 2 2 1 2 3 2 3 5 2 6 2 1 6 8 7 5 5 3 3 2 1 1 2 3 3 4 4 4 4 5 6 6 6 7 9 10 11 12 12 11 12 12 12 13 12 12 13 13 14 14
5 6 5 6 5 5 4 4 4 2 3 3 2 3 1 0 2 2 3 2 4 1 3 4 4 5 1 4 5 4 1 8 2 5 4 4 5 10 8 7 6 5 4 4 3 3 4 4 4 4 3 3 3 4 5 6 6 8 8 10 11 12 12 11 12 13 13 13 13 12 13 13 13 14
6 6 6 4 5 4 5 4 5 4 4 4 4 3 1 2 1 2 2 4 2 3 4 3 4 4 1 3 4 3 2 7 1 3 4 2 10 11 7 8 7 6 6 5 5 5 4 4 4 5 3 2 2 3 4 5 7 7 9 10 11 11 11 11 12 13 13 13 13 12 12 12 13 14
6 6 6 6 5 5 5 5 4 3 4 4 5 4 4 4 3 2 2 3 4 5 6 4 3 4 3 4 3 3 5 5 4 1 4 3 10 8 6 10 8 8 8 8 7 7 6 5 5 5 4 3 2 3 4 5 6 7 8 9 10 11 11 10 11 13 14 13 13 12 12 12 13 14
5 5 6 6 6 6 6 5 6 6 6 6 5 4 4 5 5 4 4 4 4 4 3 4 5 4 4 4 2 5 4 4 2 4 4 4 5 6 8 8 11 10 10 9 8 8 7 7 6 5 5 3 2 3 4 4 4 6 7 8 9 10 10 10 11 13 13 13 13 12 12 12 13 14
6 6 6 7 7 7 8 7 7 7 7 8 7 7 6 6 6 5 4 4 4 4 4 4 3 5 4 5 2 3 5 5 4 5 6 6 5 2 1 9 7 13 10 10 10 9 8 8 7 6 5 2 3 2 2 2 2 5 6 7 8 9 9 10 11 12 13 13 13 13 12 13 14 13
7 7 7 8 8 7 8 8 8 8 7 7 7 8 7 7 6 6 6 4 5 5 4 4 6 4 2 4 5 5 5 4 5 5 6 5 5 4 5 4 8 12 12 12 11 10 10 9 8 8 6 6 4 3 1 1 2 2 5 6 8 8 9 9 10 12 12 12 13 13 13 14 13 13
9 8 8 9 9 8 8 7 7 7 8 7 6 5 4 4 5 4 4 6 5 5 6 4 5 5 5 5 6 5 4 5 4 5 6 5 5 5 5 7 7 10 15 13 12 12 11 10 10 8 8 8 6 4 3 1 0 2 3 5 6 7 8 8 9 11 11 12 12 13 14 14 13 13
9 9 10 9 9 8 8 8 8 8 9 8 7 7 6 6 6 6 6 6 6 6 7 6 5 5 6 6 6 6 5 5 5 5 5 5 5 5 5 8 7 11 14 10 11 12 12 12 11 10 9 9 7 6 5 4 2 2 2 4 5 7 7 8 7 9 10 11 12 13 14 14 13 12
10 10 10 10 9 9 10 9 9 8 9 8 8 8 7 7 7 7 7 6 6 7 7 6 6 6 7 6 5 4 5 6 5 5 5 5 4 4 5 5 4 6 7 6 6 7 8 11 11 12 10 10 10 8 7 6 5 4 2 4 5 5 6 7 7 7 8 10 12 13 14 14 13 14
11 11 11 10 11 10 10 11 10 9 9 8 9 8 8 7 7 7 7 7 8 8 8 7 8 7 7 6 7 6 5 5 5 6 5 5 4 4 4 5 5 7 3 9 14 9 12 12 11 12 12 11 11 10 8 7 5 5 5 4 5 5 5 6 7 7 8 10 12 11 11 12 12 13
11 11 12 12 12 12 11 11 11 10 9 8 9 8 8 8 9 8 8 8 8 8 8 8 7 7 5 4 5 5 5 6 5 6 6 6 4 4 4 5 6 5 5 8 3 5 10 9 11 11 11 12 12 11 9 8 6 7 4 5 4 4 5 6 6 7 8 9 10 10 11 11 11 12
11 11 12 12 12 12 12 13 11 10 8 8 9 8 8 8 9 8 8 8 7 7 7 7 6 6 7 7 6 6 5 6 6 5 4 5 4 5 6 5 4 4 6 5 7 5 5 5 9 7 7 8 11 9 10 8 9 7 6 5 3 4 4 5 6 7 8 9 10 10 11 11 10 12
12 12 12 12 15 14 15 15 14 12 9 6 7 6 8 9 8 8 8 8 7 7 8 8 8 8 8 8 8 8 7 5 5 6 6 6 6 5 6 6 6 6 5 6 5 6 6 8 4 6 8 8 10 7 8 6 6 7 7 4 3 3 4 4 5 6 7 8 9 10 10 10 10 10
12 12 12 12 11 11 12 14 16 14 14 11 10 11 8 5 6 8 10 9 8 8 8 8 8 9 8 8 8 7 7 7 6 5 3 4 4 5 6 7 5 5 5 4 5 6 6 6 7 6 7 2 10 9 7 10 9 8 6 3 3 3 3 4 5 6 6 7 8 9 9 10 10 10
12 12 12 11 11 12 13 12 12 14 16 15 14 13 12 12 11 8 6 6 8 9 9 9 9 8 7 7 6 7 7 5 5 4 4 5 5 6 7 7 7 3 2 5 6 7 7 6 7 6 6 6 4 7 11 12 10 7 5 4 3 2 2 3 4 5 6 7 8 9 8 8 7 10
12 11 11 12 11 10 15 14 14 12 13 14 17 16 15 14 13 13 14 11 8 7 8 9 9 8 7 8 7 7 6 5 6 4 5 5 6 6 7 7 7 6 3 4 6 8 7 6 7 8 8 6 7 8 11 12 10 8 6 4 3 2 1 2 3 4 5 6 7 8 8 7 8 8
14 13 12 11 11 12 9 10 14 12 12 11 11 11 10 11 14 15 17 17 15 12 9 9 10 8 7 8 6 6 6 6 6 6 7 7 7 7 8 8 7 7 6 7 7 8 8 7 8 7 6 2 9 7 11 14 11 9 8 6 4 4 3 2 2 2 3 6 7 8 7 7 6 6
13 12 13 13 13 10 10 9 10 12 11 11 11 12 14 13 13 13 14 14 13 12 13 13 13 11 10 9 9 8 7 7 7 7 7 7 7 8 8 8 9 9 8 9 7 9 8 5 6 7 5 8 5 7 10 13 12 10 9 7 6 4 3 3 1 1 2 5 8 8 8 6 6 4
11 12 13 12 12 11 10 12 12 11 11 12 12 12 12 12 13 13 14 15 14 14 14 14 14 14 14 14 10 8 7 6 7 7 7 8 8 8 8 9 8 9 6 6 8 7 8 6 7 6 6 4 6 6 7 8 12 11 9 9 6 6 5 5 3 2 1 4 7 8 8 7 5 2
14 14 13 12 12 12 11 12 14 13 13 12 13 12 12 11 12 12 12 16 19 18 18 17 17 16 15 12 7 6 3 5 4 6 7 9 8 8 9 9 9 8 6 7 6 7 8 6 5 6 6 5 1 7 7 7 8 10 10 9 8 7 7 7 6 3 1 2 6 9 10 8 6 5
13 13 17 15 14 14 13 14 15 16 13 12 13 12 13 13 13 12 12 9 13 21 21 22 20 19 17 15 13 10 9 7 4 7 11 12 9 10 10 10 9 8 7 8 6 6 8 6 5 6 5 5 7 5 8 8 7 7 7 9 10 9 9 8 6 5 4 0 5 8 11 12 11 5
12 11 12 16 15 14 14 15 15 17 14 12 13 13 13 13 14 13 12 12 11 9 11 10 12 11 11 10 9 10 15 13 10 9 12 11 10 11 11 10 8 9 9 8 6 7 7 6 6 6 5 6 6 2 9 7 7 7 6 6 6 10 10 10 8 6 5 2 3 6 8 12 12 2
12 13 13 12 17 18 16 15 15 17 18 15 14 13 13 13 15 12 13 12 10 8 8 11 12 13 12 13 12 12 13 12 12 12 13 13 11 11 11 10 10 10 7 6 5 5 6 6 7 4 7 7 6 2 8 7 7 8 8 7 6 10 11 9 6 7 6 6 2 3 7 10 10 5
13 12 13 14 14 19 19 17 16 17 18 18 14 14 14 14 11 7 11 11 12 9 9 9 10 10 10 10 11 11 11 12 12 12 14 14 14 13 12 12 11 11 9 7 8 6 7 7 7 5 5 5 6 7 4 5 8 8 8 7 6 8 7 7 6 6 7 6 6 4 5 6 8 6
13 13 13 13 14 19 21 21 18 18 17 20 13 16 16 15 10 7 8 9 9 9 10 11 11 11 11 11 11 12 11 12 12 12 12 14 15 14 14 12 10 10 10 4 12 6 5 6 7 7 6 5 7 7 6 5 7 7 6 5 5 5 4 5 6 7 7 6 6 5 4 2 5 5
13 13 14 14 15 17 20 21 20 19 19 15 13 19 17 14 10 5 9 9 9 9 9 10 10 11 11 11 12 12 12 12 10 11 11 12 14 13 13 13 12 11 8 6 8 7 6 6 6 7 7 6 7 6 6 7 3 7 6 6 5 5 5 4 4 3 4 5 5 9 8 5 0 2
15 13 14 13 14 16 19 20 20 20 17 15 19 19 19 16 11 7 9 10 10 9 10 10 11 11 11 12 12 11 11 11 8 10 11 11 12 14 13 12 12 10 9 10 8 8 7 7 7 7 8 7 8 8 8 7 5 8 6 7 6 6 5 4 4 3 4 3 5 5 5 5 5 4
16 15 17 16 16 14 16 18 18 17 19 23 21 20 19 15 8 9 11 12 11 12 12 12 12 12 12 12 11 9 8 8 9 8 9 9 8 6 10 12 11 10 10 11 11 10 8 9 9 8 8 8 9 8 8 8 7 5 8 7 6 6 6 5 5 5 4 3 3 3 2 3 4 5
22 24 24 16 8 5 9 8 7 8 11 18 20 20 17 11 11 12 13 13 13 13 13 13 13 13 12 12 11 9 9 10 10 9 9 9 8 9 9 8 8 10 12 11 11 11 10 9 9 9 8 8 9 9 8 9 7 7 7 6 5 4 6 6 5 5 5 4 4 3 3 2 3 4
14 20 19 17 18 13 9 13 12 13 12 12 12 10 10 11 12 12 13 14 13 13 13 13 13 12 12 11 9 9 10 10 10 9 9 9 10 9 8 8 9 10 10 12 12 11 11 10 9 10 9 9 9 10 9 8 8 7 8 5 7 6 7 7 6 6 5 5 4 4 4 5 4 4
9 6 12 19 17 13 9 7 7 9 9 10 10 10 11 11 12 14 14 14 13 13 12 12 12 11 10 11 11 11 11 12 11 10 10 10 10 10 9 9 11 11 10 10 11 11 10 10 9 8 10 9 9 9 8 8 8 9 9 5 6 8 6 9 8 7 6 6 6 5 4 5 6 5
8 8 10 12 15 17 17 15 13 13 14 15 15 16 14 13 13 13 14 15 15 14 12 13 12 12 12 12 11 11 12 11 11 9 10 10 10 10 10 12 12 11 11 11 10 9 10 9 9 9 8 9 9 8 7 9 9 9 9 7 6 8 8 9 8 8 6 6 6 6 4 4 4 5
7 8 9 10 12 15 16 17 17 17 16 16 15 16 16 14 14 13 14 14 14 13 13 12 12 12 12 12 12 12 13 11 11 11 11 10 11 11 12 12 12 12 10 11 10 10 9 9 9 8 8 7 7 8 9 11 10 8 8 7 7 9 8 8 8 9 8 8 7 7 7 6 5 5
8 10 10 9 11 15 15 13 17 15 16 15 15 15 14 14 14 14 14 13 12 13 13 13 13 13 13 13 12 13 13 13 12 12 11 11 11 13 13 13 12 11 12 11 10 8 8 9 9 8 8 8 7 8 10 11 10 9 7 8 8 8 8 8 8 9 9 8 8 8 8 7 6 6
10 9 7 8 11 13 13 15 14 14 15 14 13 14 14 14 14 14 14 12 12 12 13 13 13 13 14 13 13 13 13 11 13 13 12 12 13 13 14 13 12 12 12 12 11 10 9 10 10 10 11 11 10 10 12 15 15 9 11 11 10 8 9 8 8 8 10 9 9 8 9 9 8 8
10 9 10 11 12 11 14 16 14 13 14 14 14 13 13 14 13 14 12 11 12 13 12 12 14 14 14 14 13 13 13 13 14 13 13 14 13 13 15 13 12 11 12 12 11 10 9 11 11 11 11 9 10 15 15 6 17 18 10 10 9 9 8 8 8 9 8 8 8 9 8 8 9 9
11 10 11 12 12 13 15 14 14 13 12 11 13 13 11 11 12 12 10 11 12 13 13 13 14 13 14 12 14 14 14 14 14 15 14 14 14 14 15 14 14 13 13 12 11 10 9 11 12 12 13 14 14 14 13 10 10 14 21 14 11 9 8 9 10 11 9 9 9 8 6 8 6 10
11 11 13 13 14 13 15 16 13 11 12 9 12 13 14 14 14 12 12 13 12 12 13 14 13 13 14 14 13 13 15 14 14 14 15 16 15 15 15 14 14 13 13 13 13 13 12 12 13 13 14 15 16 15 12 10 10 9 16 26 12 9 10 11 11 10 10 9 8 7 7 2 7 12
10 11 11 12 14 14 15 14 13 13 11 11 11 13 14 14 13 13 13 12 12 12 14 14 14 13 13 14 13 15 15 16 16 15 15 14 14 14 15 13 13 13 12 13 13 13 13 12 13 14 15 16 13 10 7 8 5 6 9 18 23 13 10 11 12 12 10 9 8 10 9 6 6 4
9 11 12 13 14 15 16 14 13 12 12 12 11 12 11 12 13 14 13 13 11 12 14 14 12 13 14 14 14 15 15 14 14 15 14 14 13 11 13 12 12 13 14 14 14 14 15 13 14 17 14 8 5 5 2 2 6 6 9 10 19 19 10 12 12 11 10 9 10 11 11 11 10 8
8 10 12 13 14 15 15 15 13 13 13 13 12 12 11 10 11 13 12 12 11 11 13 14 13 13 14 14 13 11 12 13 12 12 13 15 14 13 13 11 14 15 17 16 15 14 11 9 9 10 9 10 7 8 13 13 11 10 8 8 9 18 20 13 11 13 12 10 11 9 9 10 10 10
8 8 9 11 12 12 13 14 14 14 13 12 11 10 12 11 12 13 14 15 14 15 15 15 14 15 15 15 15 14 15 15 15 15 14 12 13 14 13 11 12 15 16 15 12 10 10 10 7 7 9 11 11 10 13 12 11 10 8 7 9 9 11 14 11 7 4 1 3 7 9 10 11 12
8 9 9 10 11 12 12 12 12 13 14 14 12 9 9 12 12 12 14 15 15 15 15 15 14 14 15 15 14 14 14 15 15 14 13 12 12 12 13 13 11 11 13 14 14 13 12 12 9 7 9 11 11 11 13 12 11 11 10 7 7 9 12 8 7 6 6 9 10 5 6 8 5 6
8 9 9 8 8 9 11 12 12 12 13 13 14 14 12 12 13 12 13 15 15 15 15 15 14 12 13 13 14 15 14 12 12 12 10 12 13 12 11 12 11 10 11 13 14 14 13 11 8 7 9 9 10 10 12 13 16 11 10 9 11 10 10 10 10 9 10 9 11 13 9 8 8 9
Wind_Direction
217 216 210 219 229 252 352 293 277 26 17 274 211 311 331 42 324 293 212 286 319 164 312 131 151 50 200 240 283 252 262 90 2 327 350 281 142 148 146 160 153 169 155 121 145 160 140 119 97 94 81 60 45 27 15 10 7 3 355 347 346 341 349 356 351 352 351 348 347 350 349 346 345 344
232 236 223 201 223 217 222 221 243 204 181 239 233 215 182 133 299 353 314 322 297 328 222 281 129 187 204 254 229 198 108 126 270 322 313 298 119 152 162 171 181 178 167 160 157 163 144 125 112 111 104 84 60 35 18 16 12 6 357 350 344 341 348 355 352 353 351 347 348 351 348 346 345 347
214 224 236 225 239 241 235 236 202 200 187 214 241 212 223 227 212 311 317 272 218 327 299 297 9 329 258 316 316 328 347 143 157 307 296 279 138 162 164 181 183 186 180 169 168 168 164 150 142 140 132 132 104 44 29 25 16 5 358 348 343 340 346 351 350 355 353 350 350 351 350 346 348 348
205 209 220 227 236 235 238 239 246 209 207 229 228 212 205 201 224 216 252 274 293 295 293 338 305 264 12 313 292 347 301 133 146 267 266 186 157 176 173 179 183 191 186 178 173 172 173 169 166 157 147 142 99 58 50 34 17 6 354 348 340 336 341 346 348 357 354 352 352 354 354 349 349 350
221 203 213 220 224 234 235 231 232 229 203 206 229 246 215 220 205 203 218 257 272 272 300 314 285 345 326 309 352 285 293 290 231 287 298 301 257 201 179 176 181 195 190 182 178 172 177 182 178 174 164 144 102 76 55 45 20 1 349 346 334 331 335 339 345 359 357 356 358 358 354 348 346 352
228 209 216 223 219 213 227 233 230 236 226 200 208 206 220 230 214 189 221 242 275 276 270 268 316 300 256 266 260 302 297 292 302 291 301 281 278 269 70 167 177 190 195 185 179 178 179 187 191 188 182 160 141 104 77 53 23 350 347 337 329 330 332 341 349 0 0 359 1 359 354 349 351 355
216 219 217 220 222 216 215 221 235 239 245 245 219 205 211 217 226 195 190 229 250 265 274 280 263 258 318 292 295 290 283 285 271 273 272 290 306 332 298 264 161 177 194 188 181 180 181 187 193 188 183 177 160 153 127 132 8 342 337 326 328 329 331 339 349 2 1 1 1 357 352 351 354 358
218 219 221 223 220 221 216 218 223 230 236 237 256 252 238 231 240 266 223 202 230 260 270 266 277 288 290 290 283 272 265 272 279 292 305 286 286 298 306 301 140 178 191 191 182 179 181 190 193 193 187 177 176 183 170 171 200 322 317 318 319 319 323 322 340 357 360 2 2 358 351 350 354 356
219 217 221 219 223 223 222 213 220 226 223 230 231 226 226 230 232 231 234 232 229 243 255 260 258 266 265 268 273 268 278 286 284 271 259 287 293 290 303 306 142 160 185 199 189 179 185 191 197 195 194 186 182 186 185 175 188 239 285 310 303 315 319 330 326 351 358 3 3 359 351 351 357 355
225 223 221 225 220 221 221 222 219 224 224 221 229 227 223 223 221 223 224 228 233 238 245 258 266 255 258 261 254 276 280 273 287 293 291 283 274 248 275 297 304 168 174 191 189 196 192 198 203 198 194 199 189 188 185 181 195 221 251 268 288 296 316 319 326 338 350 1 2 360 353 352 360 5
222 222 223 221 222 223 222 222 222 218 223 223 221 223 229 233 228 221 225 222 229 232 239 246 247 254 256 250 251 238 234 252 261 277 284 287 282 288 278 273 275 301 227 190 189 190 190 188 197 194 202 198 197 193 187 177 189 199 215 260 262 285 302 316 333 341 353 0 0 357 351 347 355 4
229 224 224 224 219 222 223 224 223 225 219 218 224 220 220 223 224 230 228 223 224 228 237 242 249 253 262 262 277 281 259 248 249 252 260 261 271 279 280 271 284 281 275 299 218 176 199 188 188 184 199 203 199 196 188 188 184 198 203 234 246 271 294 320 335 348 351 354 354 357 352 346 351 354
227 231 226 224 227 215 215 219 226 230 225 222 219 223 221 219 224 227 231 228 228 235 245 246 250 255 250 251 252 255 256 250 256 275 275 289 288 280 271 272 282 276 283 275 282 276 257 213 181 197 201 204 198 194 205 181 187 193 200 208 220 263 289 317 342 350 353 353 354 358 353 345 351 357
223 226 233 231 217 212 199 203 209 224 239 245 254 228 214 219 225 226 230 232 229 234 238 241 242 244 244 244 232 234 240 242 236 238 233 242 256 268 286 287 263 274 279 292 297 290 279 293 287 193 215 177 183 188 195 198 169 165 179 179 223 249 292 327 341 350 353 352 351 1 352 345 348 355
233 230 227 234 223 203 196 196 198 203 216 221 236 258 268 275 242 226 227 231 239 235 237 241 245 248 256 259 274 279 280 281 286 286 284 284 285 273 278 281 279 260 269 271 275 269 280 285 269 273 283 211 181 185 155 126 140 156 150 181 212 248 298 328 353 351 357 348 356 357 352 344 355 357
228 234 236 233 232 221 217 214 195 202 206 213 223 233 246 249 252 256 254 249 238 235 242 248 250 258 257 264 257 263 269 279 292 313 306 284 271 274 269 267 276 287 225 247 266 273 274 272 273 266 263 267 261 122 135 146 145 145 149 178 217 234 297 336 356 356 352 353 356 356 350 345 351 359
228 228 231 241 240 240 196 201 208 200 205 212 217 223 230 242 249 255 254 242 245 275 265 252 252 248 258 262 263 264 281 299 276 279 273 273 271 268 263 267 276 282 267 236 256 273 280 286 287 269 226 242 123 128 143 147 148 139 158 184 199 225 290 301 355 356 350 342 347 350 353 353 4 0
228 227 232 229 233 243 238 201 206 203 207 207 213 220 226 231 236 236 241 249 247 244 252 259 259 257 255 260 259 265 268 261 259 259 266 269 274 269 268 278 277 278 274 262 273 274 274 277 286 288 293 4 134 152 149 153 151 152 163 180 190 188 238 268 308 356 338 337 343 346 354 1 10 8
236 229 229 230 231 227 233 240 205 215 210 210 211 216 223 225 230 229 228 226 229 230 235 238 246 249 251 251 252 253 247 245 248 250 257 270 272 276 285 282 271 268 249 246 253 259 263 264 270 278 260 256 146 130 146 155 152 160 171 176 181 192 217 260 250 323 339 331 335 347 348 10 11 9
232 235 235 233 232 229 225 222 221 208 212 217 217 218 220 223 226 229 224 219 219 223 224 229 234 238 237 236 244 251 251 242 234 232 242 244 246 254 260 263 269 267 269 236 208 236 255 260 277 282 293 306 128 149 149 166 160 164 173 174 178 195 211 222 242 239 293 330 333 346 350 359 13 17
236 233 230 231 236 232 229 218 203 208 202 219 222 225 226 228 229 231 225 206 212 215 225 226 230 237 245 252 244 243 244 249 263 266 260 248 250 256 259 264 266 267 271 275 209 218 259 259 269 281 287 301 216 164 162 156 182 175 173 178 179 196 209 218 219 213 226 335 341 348 352 349 351 177
241 234 231 225 228 233 232 216 197 199 197 215 223 226 230 232 235 237 242 235 203 211 209 216 222 224 230 237 246 243 235 213 223 225 238 246 255 257 255 257 260 264 262 259 252 201 236 263 270 278 282 270 268 214 152 158 159 180 185 193 187 193 207 207 211 195 172 79 356 1 354 355 343 172
243 243 233 225 225 226 231 220 197 197 196 214 219 224 231 235 236 237 236 240 240 208 214 228 228 240 241 238 235 237 235 217 206 228 240 249 248 254 257 264 273 274 261 260 226 225 243 249 258 259 260 267 276 18 128 155 165 182 186 183 198 202 207 205 203 188 196 163 48 9 9 6 346 28
234 236 240 226 218 225 225 219 201 199 200 211 218 221 227 232 235 235 238 239 243 247 214 211 213 224 228 230 231 234 233 229 212 221 230 235 239 245 251 252 255 258 264 263 234 246 260 264 273 261 271 290 287 147 155 162 176 185 191 185 198 193 200 197 195 191 185 162 137 23 15 26 8 355
236 231 230 238 212 212 220 218 201 201 205 211 217 220 226 228 234 240 241 236 231 236 243 244 231 220 222 232 237 233 231 229 224 217 218 225 229 234 241 248 250 256 252 254 155 203 238 253 261 269 278 273 270 273 264 174 178 186 192 195 200 161 181 194 189 178 193 208 178 134 51 21 26 20
238 237 234 233 222 205 212 215 208 204 202 213 220 224 227 233 234 245 242 251 247 237 233 236 240 243 238 236 230 234 236 231 226 222 211 211 221 225 235 241 247 256 253 221 161 205 220 245 254 260 262 253 261 265 260 238 194 182 177 201 199 163 212 195 188 168 173 177 183 181 122 71 7 36
242 241 243 241 224 204 209 213 212 207 206 205 220 228 233 233 228 234 240 244 247 251 249 244 241 235 238 241 242 242 241 241 239 242 236 207 206 220 227 234 239 246 253 252 176 215 208 234 242 247 250 251 266 265 264 267 236 146 182 201 185 185 192 211 200 189 172 172 148 134 147 164 303 38
253 247 249 245 237 203 205 211 211 211 205 213 219 224 230 232 227 234 237 236 239 243 245 247 245 243 239 241 241 240 241 246 243 241 244 250 220 202 215 221 231 244 250 252 229 203 223 235 229 227 229 245 249 248 256 260 261 157 201 178 201 195 191 191 180 174 186 192 158 169 180 170 176 165
264 274 266 261 251 210 206 208 208 210 212 216 219 220 223 224 227 226 232 236 235 232 232 233 237 240 237 238 242 243 249 247 246 244 252 244 255 238 198 207 216 217 225 233 240 235 220 222 235 233 230 230 234 242 249 252 266 194 189 186 199 199 183 189 186 182 186 193 186 190 185 161 175 198
296 299 306 322 317 233 209 201 207 214 217 219 224 226 222 220 223 223 225 228 230 233 231 230 231 233 236 237 236 240 242 247 243 244 240 243 237 236 238 233 222 225 229 230 229 231 233 223 221 230 237 230 229 239 233 242 236 245 242 201 205 171 178 191 187 166 178 189 181 186 160 186 178 200
267 290 301 300 306 302 212 211 211 216 210 209 220 227 224 223 224 220 223 226 226 226 230 232 232 232 236 239 238 229 226 227 236 235 240 240 239 234 233 231 235 234 235 234 230 228 229 233 226 223 229 230 235 228 233 240 256 259 259 210 188 206 192 190 183 179 178 181 176 173 179 178 177 224
226 241 289 298 283 264 244 230 233 230 223 217 209 215 217 218 222 226 226 228 233 232 229 231 233 237 233 236 232 233 232 234 228 222 229 233 235 235 229 231 232 234 235 228 230 225 217 225 227 221 223 226 230 234 226 231 237 240 245 226 190 223 202 181 185 180 177 181 186 182 196 201 192 185
189 212 233 245 262 269 257 248 240 233 236 236 236 231 227 224 220 218 220 223 224 225 228 228 228 229 230 232 231 231 235 229 226 213 220 223 233 230 234 239 239 235 233 229 221 218 218 214 213 219 223 225 229 231 229 228 223 237 252 237 205 207 212 181 191 175 169 188 201 178 185 224 201 188
200 217 237 241 254 260 260 250 241 240 234 234 235 238 232 230 229 221 216 220 221 220 224 227 227 229 228 230 226 230 232 232 229 223 216 223 222 228 231 236 238 236 235 239 233 228 212 207 202 213 221 228 227 223 226 233 236 228 229 240 209 201 211 187 187 162 172 187 190 186 176 201 199 188
213 218 211 225 243 253 257 256 248 237 237 235 236 238 231 226 230 234 232 221 218 218 221 222 227 227 227 229 228 229 229 231 231 230 222 224 222 226 228 231 235 233 235 234 236 233 210 196 198 204 214 224 229 234 226 228 236 230 228 224 216 200 203 197 183 163 176 186 194 195 189 192 190 191
214 214 214 226 239 245 255 259 260 249 242 240 238 241 234 230 225 223 230 228 225 220 220 221 220 223 225 227 227 228 230 228 232 231 228 224 224 226 228 230 232 234 234 234 232 233 216 200 193 205 217 219 224 234 236 214 217 232 228 227 213 195 194 192 178 170 180 192 195 196 201 194 188 181
212 209 213 220 228 237 244 242 242 250 249 242 243 239 241 241 234 229 223 205 222 227 226 221 225 222 223 224 225 225 227 226 231 229 231 230 228 227 231 228 227 229 236 233 230 227 209 206 207 197 212 217 221 233 241 195 210 216 230 232 209 199 186 185 168 182 193 193 196 201 208 207 195 177
212 209 222 229 230 234 240 243 240 238 242 242 245 245 241 246 247 239 224 208 206 217 221 227 230 228 229 226 225 228 228 227 229 231 230 230 231 231 229 230 229 224 226 230 226 224 217 213 203 195 207 220 225 231 240 220 193 211 212 222 218 196 180 176 184 189 191 195 201 199 207 225 210 172
212 218 227 236 241 239 241 247 250 249 248 249 249 243 246 245 246 245 240 235 227 219 222 224 227 228 232 234 232 232 235 234 235 234 236 237 235 236 233 231 232 231 230 230 231 232 222 218 203 199 201 211 221 225 229 231 215 198 198 205 216 203 186 187 191 191 193 193 198 183 205 77 35 98
217 229 238 247 251 253 254 251 248 249 253 250 251 253 247 247 246 247 246 241 236 230 234 232 233 233 233 234 238 242 243 240 240 244 241 239 234 234 236 234 232 231 229 229 231 230 227 219 206 205 205 212 221 237 263 258 268 171 188 200 209 211 192 183 192 188 198 194 185 192 186 156 172 165
227 230 238 241 247 249 250 248 248 247 249 250 251 252 251 250 250 249 248 245 245 239 237 237 232 229 235 238 238 238 244 246 244 240 241 242 241 240 239 233 237 232 234 231 228 228 227 221 211 213 217 222 201 86 143 204 205 192 194 197 209 218 222 197 187 193 196 184 191 195 195 187 188 172
234 234 238 240 243 245 245 246 246 248 247 250 252 251 251 250 251 250 254 251 247 246 247 244 240 238 239 237 238 236 235 237 238 239 240 245 246 241 234 232 238 237 238 234 228 228 226 221 199 178 190 208 192 193 221 219 221 217 199 188 186 211 215 229 228 207 201 193 189 191 195 196 196 197
265 266 258 257 254 254 255 254 250 248 249 250 250 248 249 249 250 248 247 248 246 247 246 245 246 245 244 243 242 240 243 243 242 243 242 238 239 244 245 236 232 240 243 245 244 239 233 229 209 182 185 192 201 203 224 223 220 212 192 176 184 184 204 212 219 248 221 181 203 193 198 196 194 205
251 249 255 257 258 256 255 254 254 253 253 250 246 248 251 250 249 248 248 248 247 245 244 247 245 246 246 248 247 242 238 240 243 243 241 242 244 245 242 245 241 234 239 243 244 243 240 238 229 180 194 201 204 208 223 227 226 209 197 187 172 181 201 176 184 232 271 249 232 147 82 80 101 90
274 271 268 263 260 267 269 267 262 258 255 252 251 248 245 250 247 243 248 251 252 252 250 247 245 246 249 247 247 247 244 240 238 239 234 235 234 234 237 238 239 234 230 231 238 238 236 234 227 200 214 211 214 220 230 237 240 221 193 172 192 193 188 181 181 191 210 211 215 175 149 125 101 107